Time,TemperatureF,DewpointF,PressureIn,WindDirection,WindDirectionDegrees,WindSpeedMPH,WindSpeedGustMPH,Humidity,HourlyPrecipIn,Conditions,Clouds,dailyrainin,SoftwareType,DateUTC
2013-01-02 00:02:00,7.0,-1.0,30.19,SW,228,6.0,6.0,69,0.00,,,0.00,,2013-01-02 06:02:00,
2013-01-02 00:12:00,7.0,-1.0,30.19,SW,228,6.0,6.0,69,0.00,,,0.00,,2013-01-02 06:12:00,
2013-01-02 00:22:00,7.0,-1.0,30.19,West,269,4.0,6.0,69,0.00,,,0.00,,2013-01-02 06:22:00,
2013-01-02 00:32:00,8.0,0.0,30.19,West,259,5.0,8.0,68,0.00,,,0.00,,2013-01-02 06:32:00,
2013-01-02 00:42:00,8.0,0.0,30.19,West,259,5.0,8.0,68,0.00,,,0.00,,2013-01-02 06:42:00,
2013-01-02 00:52:00,8.0,0.0,30.19,West,259,5.0,8.0,68,0.00,,,0.00,,2013-01-02 06:52:00,
2013-01-02 01:02:00,9.0,1.0,30.19,WSW,252,3.0,5.0,69,0.00,,,0.00,,2013-01-02 07:02:00,
2013-01-02 01:12:00,9.0,1.0,30.19,WSW,252,3.0,5.0,69,0.00,,,0.00,,2013-01-02 07:12:00,
2013-01-02 01:22:00,9.0,1.0,30.19,WSW,249,5.0,5.0,69,0.00,,,0.00,,2013-01-02 07:22:00,
2013-01-02 01:32:00,10.0,2.0,30.18,West,264,3.0,6.0,68,0.00,,,0.00,,2013-01-02 07:32:00,
2013-01-02 01:42:00,10.0,2.0,30.18,West,264,3.0,6.0,68,0.00,,,0.00,,2013-01-02 07:42:00,
2013-01-02 01:52:00,10.0,2.0,30.18,West,270,3.0,5.0,69,0.00,,,0.00,,2013-01-02 07:52:00,
2013-01-02 02:02:00,10.0,2.0,30.19,West,278,4.0,6.0,69,0.00,,,0.00,,2013-01-02 08:02:00,
2013-01-02 02:11:00,10.0,2.0,30.19,West,278,4.0,6.0,69,0.00,,,0.00,,2013-01-02 08:11:00,
2013-01-02 02:22:00,10.0,2.0,30.19,WSW,249,3.0,6.0,68,0.00,,,0.00,,2013-01-02 08:22:00,
2013-01-02 02:32:00,10.0,2.0,30.20,West,260,5.0,6.0,69,0.00,,,0.00,,2013-01-02 08:32:00,
2013-01-02 02:42:00,10.0,2.0,30.20,West,260,5.0,6.0,69,0.00,,,0.00,,2013-01-02 08:42:00,
2013-01-02 02:52:00,11.0,3.0,30.20,WSW,250,3.0,6.0,70,0.00,,,0.00,,2013-01-02 08:52:00,
2013-01-02 03:02:00,11.0,3.0,30.21,West,273,7.0,8.0,70,0.00,,,0.00,,2013-01-02 09:02:00,
2013-01-02 03:12:00,11.0,3.0,30.21,West,273,7.0,8.0,70,0.00,,,0.00,,2013-01-02 09:12:00,
2013-01-02 03:22:00,11.0,3.0,30.21,SW,229,5.0,8.0,71,0.00,,,0.00,,2013-01-02 09:22:00,
2013-01-02 03:32:00,11.0,3.0,30.21,WSW,242,3.0,5.0,71,0.00,,,0.00,,2013-01-02 09:32:00,
2013-01-02 03:43:00,11.0,3.0,30.21,WSW,242,3.0,5.0,71,0.00,,,0.00,,2013-01-02 09:43:00,
2013-01-02 03:53:00,12.0,5.0,30.19,WSW,258,4.0,7.0,72,0.00,,,0.00,,2013-01-02 09:53:00,
2013-01-02 04:02:00,12.0,5.0,30.19,WSW,252,5.0,6.0,73,0.00,,,0.00,,2013-01-02 10:02:00,
2013-01-02 04:12:00,13.0,6.0,30.19,WSW,242,5.0,5.0,74,0.00,,,0.00,,2013-01-02 10:12:00,
2013-01-02 04:22:00,13.0,6.0,30.19,WSW,242,5.0,5.0,74,0.00,,,0.00,,2013-01-02 10:22:00,
2013-01-02 04:32:00,13.0,6.0,30.19,WSW,238,5.0,7.0,74,0.00,,,0.00,,2013-01-02 10:32:00,
2013-01-02 04:42:00,13.0,6.0,30.19,WSW,238,5.0,7.0,74,0.00,,,0.00,,2013-01-02 10:42:00,
2013-01-02 04:52:00,13.0,7.0,30.18,WSW,256,6.0,6.0,75,0.00,,,0.00,,2013-01-02 10:52:00,
2013-01-02 05:02:00,13.0,7.0,30.18,West,259,5.0,6.0,75,0.00,,,0.00,,2013-01-02 11:02:00,
2013-01-02 05:12:00,13.0,7.0,30.18,West,259,5.0,6.0,75,0.00,,,0.00,,2013-01-02 11:12:00,
2013-01-02 05:22:00,14.0,8.0,30.19,WSW,240,5.0,6.0,76,0.00,,,0.00,,2013-01-02 11:22:00,
2013-01-02 05:32:00,14.0,8.0,30.19,WSW,237,3.0,7.0,76,0.00,,,0.00,,2013-01-02 11:32:00,
2013-01-02 05:42:00,14.0,8.0,30.19,WSW,237,3.0,7.0,76,0.00,,,0.00,,2013-01-02 11:42:00,
2013-01-02 05:53:00,14.0,8.0,30.19,WSW,248,3.0,6.0,77,0.00,,,0.00,,2013-01-02 11:53:00,
2013-01-02 06:02:00,14.0,8.0,30.19,WSW,254,3.0,6.0,77,0.00,,,0.00,,2013-01-02 12:02:00,
2013-01-02 06:12:00,14.0,8.0,30.19,WSW,254,3.0,6.0,77,0.00,,,0.00,,2013-01-02 12:12:00,
2013-01-02 06:22:00,14.0,8.0,30.19,WSW,240,4.0,5.0,77,0.00,,,0.00,,2013-01-02 12:22:00,
2013-01-02 06:32:00,14.0,8.0,30.19,WSW,242,3.0,5.0,78,0.00,,,0.00,,2013-01-02 12:32:00,
2013-01-02 06:42:00,14.0,8.0,30.19,WSW,242,3.0,5.0,78,0.00,,,0.00,,2013-01-02 12:42:00,
2013-01-02 06:53:00,15.0,10.0,30.19,WSW,254,5.0,6.0,79,0.00,,,0.00,,2013-01-02 12:53:00,
2013-01-02 07:02:00,15.0,10.0,30.19,West,259,3.0,3.0,79,0.00,,,0.00,,2013-01-02 13:02:00,
2013-01-02 07:12:00,15.0,10.0,30.19,West,259,3.0,3.0,79,0.00,,,0.00,,2013-01-02 13:12:00,
2013-01-02 07:22:00,15.0,10.0,30.19,WSW,250,4.0,5.0,80,0.00,,,0.00,,2013-01-02 13:22:00,
2013-01-02 07:32:00,16.0,11.0,30.19,WSW,246,3.0,5.0,80,0.00,,,0.00,,2013-01-02 13:32:00,
2013-01-02 07:42:00,16.0,11.0,30.19,WSW,246,3.0,5.0,80,0.00,,,0.00,,2013-01-02 13:42:00,
2013-01-02 07:52:00,16.0,11.0,30.21,WSW,248,3.0,5.0,81,0.00,,,0.00,,2013-01-02 13:52:00,
2013-01-02 08:02:00,16.0,11.0,30.21,WSW,257,3.0,4.0,81,0.00,,,0.00,,2013-01-02 14:02:00,
2013-01-02 08:12:00,16.0,11.0,30.21,WSW,257,3.0,4.0,81,0.00,,,0.00,,2013-01-02 14:12:00,
2013-01-02 08:22:00,16.0,11.0,30.21,WSW,248,3.0,3.0,81,0.00,,,0.00,,2013-01-02 14:22:00,
2013-01-02 08:33:00,16.0,11.0,30.21,WSW,247,2.0,3.0,81,0.00,,,0.00,,2013-01-02 14:33:00,
2013-01-02 08:42:00,16.0,11.0,30.21,WSW,247,2.0,3.0,81,0.00,,,0.00,,2013-01-02 14:42:00,
2013-01-02 08:53:00,16.0,11.0,30.20,South,178,1.0,3.0,80,0.00,,,0.00,,2013-01-02 14:53:00,
2013-01-02 09:02:00,17.0,12.0,30.20,SSE,156,1.0,3.0,80,0.00,,,0.00,,2013-01-02 15:02:00,
2013-01-02 09:12:00,17.0,12.0,30.20,SSE,156,1.0,3.0,80,0.00,,,0.00,,2013-01-02 15:12:00,
2013-01-02 09:22:00,17.0,12.0,30.20,SW,233,3.0,3.0,80,0.00,,,0.00,,2013-01-02 15:22:00,
2013-01-02 09:33:00,18.0,13.0,30.20,SW,232,3.0,4.0,79,0.00,,,0.00,,2013-01-02 15:33:00,
2013-01-02 09:42:00,18.0,13.0,30.20,SW,232,3.0,4.0,79,0.00,,,0.00,,2013-01-02 15:42:00,
2013-01-02 09:53:00,18.0,13.0,30.21,WSW,239,2.0,5.0,79,0.00,,,0.00,,2013-01-02 15:53:00,
2013-01-02 10:03:00,18.0,12.0,30.20,SW,217,7.0,9.0,77,0.00,,,0.00,,2013-01-02 16:03:00,
2013-01-02 10:12:00,18.0,12.0,30.20,SW,217,7.0,9.0,77,0.00,,,0.00,,2013-01-02 16:12:00,
2013-01-02 10:22:00,18.0,10.0,30.21,WSW,248,4.0,6.0,70,0.00,,,0.00,,2013-01-02 16:22:00,
2013-01-02 10:33:00,18.0,10.0,30.21,WSW,254,7.0,10.0,69,0.00,,,0.00,,2013-01-02 16:33:00,
2013-01-02 10:42:00,18.0,10.0,30.21,WSW,254,7.0,10.0,69,0.00,,,0.00,,2013-01-02 16:42:00,
2013-01-02 10:53:00,19.0,10.0,30.19,SW,236,5.0,6.0,68,0.00,,,0.00,,2013-01-02 16:53:00,
2013-01-02 11:03:00,19.0,10.0,30.19,SW,236,5.0,6.0,68,0.00,,,0.00,,2013-01-02 17:03:00,
2013-01-02 11:12:00,19.0,10.0,30.19,SW,236,5.0,6.0,68,0.00,,,0.00,,2013-01-02 17:12:00,
2013-01-02 11:23:00,20.0,11.0,30.19,SSW,201,2.0,5.0,68,0.00,,,0.00,,2013-01-02 17:23:00,
2013-01-02 11:33:00,21.0,12.0,30.19,SSW,192,1.0,4.0,67,0.00,,,0.00,,2013-01-02 17:33:00,
2013-01-02 11:43:00,21.0,12.0,30.19,SSW,192,1.0,4.0,67,0.00,,,0.00,,2013-01-02 17:43:00,
2013-01-02 11:53:00,20.0,11.0,30.17,SSW,211,3.0,7.0,66,0.00,,,0.00,,2013-01-02 17:53:00,
2013-01-02 12:02:00,22.0,12.0,30.17,WSW,252,4.0,6.0,65,0.00,,,0.00,,2013-01-02 18:02:00,
2013-01-02 12:12:00,22.0,12.0,30.17,WSW,252,4.0,6.0,65,0.00,,,0.00,,2013-01-02 18:12:00,
2013-01-02 12:22:00,22.0,11.0,30.14,WSW,254,9.0,12.0,62,0.00,,,0.00,,2013-01-02 18:22:00,
2013-01-02 12:33:00,22.0,11.0,30.14,SW,233,7.0,10.0,62,0.00,,,0.00,,2013-01-02 18:33:00,
2013-01-02 12:42:00,22.0,11.0,30.14,SW,233,7.0,10.0,62,0.00,,,0.00,,2013-01-02 18:42:00,
2013-01-02 12:53:00,22.0,10.0,30.13,WSW,238,7.0,10.0,58,0.00,,,0.00,,2013-01-02 18:53:00,
2013-01-02 13:03:00,23.0,10.0,30.13,WSW,247,3.0,7.0,58,0.00,,,0.00,,2013-01-02 19:03:00,
2013-01-02 13:12:00,23.0,10.0,30.13,WSW,247,3.0,7.0,58,0.00,,,0.00,,2013-01-02 19:12:00,
2013-01-02 13:22:00,24.0,10.0,30.12,SSW,203,3.0,6.0,54,0.00,,,0.00,,2013-01-02 19:22:00,
2013-01-02 13:32:00,24.0,10.0,30.12,SE,146,0.0,4.0,54,0.00,,,0.00,,2013-01-02 19:32:00,
2013-01-02 13:43:00,24.0,10.0,30.12,SE,146,0.0,4.0,54,0.00,,,0.00,,2013-01-02 19:43:00,
2013-01-02 13:53:00,24.0,7.0,30.11,WSW,250,6.0,9.0,48,0.00,,,0.00,,2013-01-02 19:53:00,
2013-01-02 14:02:00,24.0,7.0,30.11,WSW,239,3.0,6.0,48,0.00,,,0.00,,2013-01-02 20:02:00,
2013-01-02 14:12:00,24.0,7.0,30.11,WSW,239,3.0,6.0,48,0.00,,,0.00,,2013-01-02 20:12:00,
2013-01-02 14:23:00,24.0,7.0,30.11,WSW,244,5.0,7.0,47,0.00,,,0.00,,2013-01-02 20:23:00,
2013-01-02 14:33:00,24.0,7.0,30.11,SW,227,4.0,8.0,48,0.00,,,0.00,,2013-01-02 20:33:00,
2013-01-02 14:42:00,24.0,7.0,30.11,SW,227,4.0,8.0,48,0.00,,,0.00,,2013-01-02 20:42:00,
2013-01-02 14:53:00,24.0,8.0,30.11,SSW,196,1.0,3.0,50,0.00,,,0.00,,2013-01-02 20:53:00,
2013-01-02 15:03:00,25.0,9.0,30.11,South,180,2.0,5.0,50,0.00,,,0.00,,2013-01-02 21:03:00,
2013-01-02 15:12:00,25.0,9.0,30.11,South,180,2.0,5.0,50,0.00,,,0.00,,2013-01-02 21:12:00,
2013-01-02 15:22:00,25.0,9.0,30.11,SW,220,5.0,10.0,51,0.00,,,0.00,,2013-01-02 21:22:00,
2013-01-02 15:32:00,25.0,10.0,30.11,SW,219,3.0,6.0,53,0.00,,,0.00,,2013-01-02 21:32:00,
2013-01-02 15:42:00,25.0,10.0,30.11,SW,219,3.0,6.0,53,0.00,,,0.00,,2013-01-02 21:42:00,
2013-01-02 15:53:00,25.0,10.0,30.11,WSW,240,2.0,3.0,53,0.00,,,0.00,,2013-01-02 21:53:00,
2013-01-02 16:02:00,25.0,10.0,30.11,WSW,240,1.0,3.0,53,0.00,,,0.00,,2013-01-02 22:02:00,
2013-01-02 16:12:00,25.0,10.0,30.11,WSW,240,1.0,3.0,53,0.00,,,0.00,,2013-01-02 22:12:00,
2013-01-02 16:22:00,25.0,11.0,30.11,WSW,244,2.0,3.0,55,0.00,,,0.00,,2013-01-02 22:22:00,
2013-01-02 16:32:00,24.0,11.0,30.11,SE,134,0.0,2.0,57,0.00,,,0.00,,2013-01-02 22:32:00,
2013-01-02 16:42:00,24.0,11.0,30.11,SE,134,0.0,2.0,57,0.00,,,0.00,,2013-01-02 22:42:00,
2013-01-02 16:53:00,24.0,12.0,30.10,SSE,167,1.0,2.0,60,0.00,,,0.00,,2013-01-02 22:53:00,
2013-01-02 17:02:00,24.0,13.0,30.10,SSE,159,0.0,1.0,61,0.00,,,0.00,,2013-01-02 23:02:00,
2013-01-02 17:12:00,24.0,13.0,30.11,SE,139,1.0,2.0,61,0.00,,,0.00,,2013-01-02 23:12:00,
2013-01-02 17:23:00,24.0,13.0,30.11,SE,139,1.0,2.0,61,0.00,,,0.00,,2013-01-02 23:23:00,
2013-01-02 17:33:00,24.0,12.0,30.11,SE,139,0.0,2.0,60,0.00,,,0.00,,2013-01-02 23:33:00,
2013-01-02 17:42:00,24.0,12.0,30.11,SE,139,0.0,2.0,60,0.00,,,0.00,,2013-01-02 23:42:00,
2013-01-02 17:53:00,24.0,12.0,30.11,SE,144,0.0,0.0,60,0.00,,,0.00,,2013-01-02 23:53:00,
2013-01-02 18:02:00,24.0,12.0,30.11,SE,144,0.0,0.0,60,0.00,,,0.00,,2013-01-03 00:02:00,
2013-01-02 18:12:00,24.0,12.0,30.11,SE,144,0.0,0.0,60,0.00,,,0.00,,2013-01-03 00:12:00,
2013-01-02 18:22:00,24.0,13.0,30.11,SE,144,0.0,1.0,62,0.00,,,0.00,,2013-01-03 00:22:00,
2013-01-02 18:38:00,23.0,12.0,30.11,SE,144,0.0,2.0,63,0.00,,,0.00,,2013-01-03 00:38:00,
2013-01-02 18:52:00,23.0,13.0,30.11,SE,144,1.0,3.0,65,0.00,,,0.00,,2013-01-03 00:52:00,
2013-01-02 19:02:00,24.0,14.0,30.11,SSW,205,1.0,2.0,65,0.00,,,0.00,,2013-01-03 01:02:00,
2013-01-02 19:12:00,24.0,14.0,30.11,SSW,205,1.0,2.0,65,0.00,,,0.00,,2013-01-03 01:12:00,
2013-01-02 19:22:00,24.0,15.0,30.11,SW,227,3.0,3.0,67,0.00,,,0.00,,2013-01-03 01:22:00,
2013-01-02 19:32:00,24.0,15.0,30.11,WSW,239,3.0,3.0,68,0.00,,,0.00,,2013-01-03 01:32:00,
2013-01-02 19:42:00,24.0,15.0,30.11,WSW,239,3.0,3.0,68,0.00,,,0.00,,2013-01-03 01:42:00,
2013-01-02 19:52:00,24.0,15.0,30.11,WSW,238,2.0,4.0,69,0.00,,,0.00,,2013-01-03 01:52:00,
2013-01-02 20:02:00,24.0,15.0,30.11,WSW,252,4.0,6.0,69,0.00,,,0.00,,2013-01-03 02:02:00,
2013-01-02 20:12:00,24.0,15.0,30.11,WSW,252,4.0,6.0,69,0.00,,,0.00,,2013-01-03 02:12:00,
2013-01-02 20:22:00,24.0,16.0,30.10,WSW,257,3.0,5.0,71,0.00,,,0.00,,2013-01-03 02:22:00,
2013-01-02 20:33:00,24.0,16.0,30.10,WSW,246,4.0,6.0,71,0.00,,,0.00,,2013-01-03 02:33:00,
2013-01-02 20:42:00,24.0,16.0,30.10,WSW,246,4.0,6.0,71,0.00,,,0.00,,2013-01-03 02:42:00,
2013-01-02 20:52:00,24.0,16.0,30.10,WSW,246,4.0,6.0,71,0.00,,,0.00,,2013-01-03 02:52:00,
2013-01-02 21:02:00,24.0,17.0,30.10,WSW,244,5.0,7.0,73,0.00,,,0.00,,2013-01-03 03:02:00,
2013-01-02 21:12:00,24.0,17.0,30.09,WSW,246,5.0,6.0,74,0.00,,,0.00,,2013-01-03 03:12:00,
2013-01-02 21:22:00,24.0,17.0,30.09,WSW,246,5.0,6.0,74,0.00,,,0.00,,2013-01-03 03:22:00,
2013-01-02 21:46:00,24.0,17.0,30.09,WSW,255,4.0,8.0,74,0.00,,,0.00,,2013-01-03 03:46:00,
2013-01-02 21:53:00,24.0,17.0,30.09,WSW,243,5.0,10.0,75,0.00,,,0.00,,2013-01-03 03:53:00,
2013-01-02 22:02:00,24.0,17.0,30.09,WSW,250,6.0,8.0,75,0.00,,,0.00,,2013-01-03 04:02:00,
2013-01-02 22:12:00,24.0,17.0,30.09,WSW,250,6.0,8.0,75,0.00,,,0.00,,2013-01-03 04:12:00,
2013-01-02 22:22:00,24.0,18.0,30.09,WSW,256,4.0,7.0,76,0.00,,,0.00,,2013-01-03 04:22:00,
2013-01-02 22:32:00,24.0,18.0,30.09,WSW,244,5.0,7.0,76,0.00,,,0.00,,2013-01-03 04:32:00,
2013-01-02 22:42:00,24.0,18.0,30.09,WSW,244,5.0,7.0,76,0.00,,,0.00,,2013-01-03 04:42:00,
2013-01-02 22:52:00,24.0,18.0,30.09,West,270,4.0,4.0,77,0.00,,,0.00,,2013-01-03 04:52:00,
2013-01-02 23:03:00,24.0,18.0,30.09,West,259,2.0,4.0,77,0.00,,,0.00,,2013-01-03 05:03:00,
2013-01-02 23:12:00,24.0,18.0,30.09,WSW,256,3.0,6.0,78,0.00,,,0.00,,2013-01-03 05:12:00,
2013-01-02 23:22:00,24.0,18.0,30.09,WSW,256,3.0,6.0,78,0.00,,,0.00,,2013-01-03 05:22:00,
2013-01-02 23:33:00,24.0,18.0,30.09,West,271,4.0,6.0,78,0.00,,,0.00,,2013-01-03 05:33:00,
2013-01-02 23:42:00,24.0,18.0,30.09,West,271,4.0,6.0,78,0.00,,,0.00,,2013-01-03 05:42:00,
2013-01-02 23:53:00,24.0,18.0,30.09,WSW,255,3.0,5.0,78,0.00,,,0.00,,2013-01-03 05:53:00,